FW8793 Weather Reports


time (UTC)temp
C
wind
direction
speed
KPH
gust
KPH
rain 1hr
cm
rain 24hr
cm
rain mn
cm
humidity
%
barometer
mb
20260509075001 11 215 1.6 6.4 0.00 0.00 0.00 84 1003.2
20260509074001 11 232 3.2 8.0 0.00 0.00 0.00 83 1003.4
20260509073003 10 167 3.2 11.3 0.00 0.00 0.00 83 1003.4
20260509070004 10 173 1.6 8.0 0.00 0.00 0.00 81 1003.9
20260509065005 9 207 1.6 4.8 0.00 0.00 0.00 80 1003.9
20260509064001 9 178 1.6 4.8 0.00 0.00 0.00 78 1003.9
20260509063000 8 203 1.6 4.8 0.00 0.00 0.00 75 1004.1
20260509062000 8 196 1.6 4.8 0.00 0.00 0.00 68 1004.3
20260509061001 8 197 1.6 4.8 0.00 0.00 0.00 61 1004.4
20260509060005 8 223 1.6 3.2 0.00 0.00 0.00 60 1004.4
20260509055000 8 179 1.6 4.8 0.00 0.00 0.00 57 1004.5
20260509054001 8 229 0.0 3.2 0.00 0.00 0.00 55 1004.6
20260509052002 8 165 1.6 4.8 0.00 0.00 0.00 54 1004.6
20260509051000 8 126 1.6 8.0 0.00 0.00 0.00 53 1004.6
20260509050004 8 106 3.2 8.0 0.00 0.00 0.00 52 1004.6
20260509045000 8 140 1.6 9.7 0.00 0.00 0.00 51 1004.7
20260509043000 9 98 3.2 6.4 0.00 0.00 0.00 49 1004.8
20260509042004 9 123 1.6 4.8 0.00 0.00 0.00 50 1004.9
20260509041001 9 105 1.6 6.4 0.00 0.00 0.00 49 1005.0
20260509040006 9 155 1.6 4.8 0.00 0.00 0.00 49 1005.1
20260509034002 9 128 1.6 3.2 0.00 0.00 0.00 50 1005.2
20260509033000 9 146 1.6 4.8 0.00 0.00 0.00 50 1005.3
20260509032001 8 130 1.6 6.4 0.00 0.00 0.00 50 1005.3
20260509031000 8 136 0.0 3.2 0.00 0.00 0.00 55 1005.5
20260509030004 8 153 0.0 3.2 0.00 0.00 0.00 56 1005.6
20260509025000 8 149 0.0 4.8 0.00 0.00 0.00 55 1005.6
20260509024001 8 167 0.0 3.2 0.00 0.00 0.00 49 1005.8
20260509023000 8 206 0.0 1.6 0.00 0.00 0.00 52 1005.9
20260509022000 8 236 0.0 0.0 0.00 0.00 0.00 51 1005.9
20260509021000 8 236 0.0 0.0 0.00 0.00 0.00 49 1005.9
20260509020004 8 236 0.0 0.0 0.00 0.00 0.00 57 1005.9
20260509015001 8 236 0.0 1.6 0.00 0.00 0.00 64 1005.9
20260509014000 9 236 0.0 0.0 0.00 0.00 0.00 60 1005.8
20260509013001 10 236 0.0 0.0 0.00 0.00 0.00 48 1005.7
20260509012000 10 236 0.0 0.0 0.00 0.00 0.00 55 1005.7
20260509011002 11 236 0.0 1.6 0.00 0.00 0.00 52 1005.7
20260509010004 11 236 0.0 0.0 0.00 0.00 0.00 48 1005.7
20260509005001 12 236 0.0 0.0 0.00 0.00 0.00 47 1005.7
20260509004002 12 236 0.0 0.0 0.00 0.00 0.00 37 1005.7
20260509003004 13 236 0.0 0.0 0.00 0.00 0.00 36 1005.7
20260509000005 14 239 1.6 4.8 0.00 0.00 0.00 29 1006.1
20260508234000 15 223 1.6 4.8 0.00 0.00 0.00 29 1006.4
20260508233005 15 221 1.6 4.8 0.00 0.00 0.00 33 1006.4
20260508232000 15 214 1.6 8.0 0.00 0.00 0.00 32 1006.5
20260508231001 15 248 3.2 12.9 0.00 0.00 0.00 30 1006.5
20260508230004 16 185 3.2 14.5 0.00 0.00 0.00 30 1006.6
20260508225002 16 265 1.6 12.9 0.00 0.00 0.00 34 1006.5
20260508224002 16 264 3.2 8.0 0.00 0.00 0.00 33 1006.4
20260508223002 16 236 3.2 9.7 0.00 0.00 0.00 32 1006.5
20260508221003 16 262 3.2 9.7 0.00 0.00 0.00 34 1006.6
20260508220004 17 223 3.2 8.0 0.00 0.00 0.00 33 1006.7
20260508215003 17 220 3.2 12.9 0.00 0.00 0.00 35 1006.6
20260508214005 17 191 3.2 9.7 0.00 0.00 0.00 34 1006.7
20260508212002 17 230 3.2 8.0 0.00 0.00 0.00 36 1006.8
20260508211001 18 228 3.2 8.0 0.00 0.00 0.00 32 1006.8
20260508210004 18 215 1.6 4.8 0.00 0.00 0.00 33 1006.9
20260508205001 17 236 3.2 9.7 0.00 0.00 0.00 37 1007.0
20260508204003 17 201 3.2 14.5 0.00 0.00 0.00 33 1007.1
20260508203001 18 265 3.2 8.0 0.00 0.00 0.00 32 1007.2
20260508202004 18 248 3.2 6.4 0.00 0.00 0.00 35 1007.3
20260508200005 18 196 3.2 16.1 0.00 0.00 0.00 37 1007.6
20260508195001 17 82 3.2 12.9 0.00 0.00 0.00 31 1007.7
20260508194002 17 271 3.2 12.9 0.00 0.00 0.00 37 1007.8
20260508193001 17 218 3.2 12.9 0.00 0.00 0.00 37 1007.8
20260508192000 17 212 3.2 8.0 0.00 0.00 0.00 37 1008.0
20260508191001 17 287 3.2 11.3 0.00 0.00 0.00 35 1008.0
20260508190002 17 251 3.2 12.9 0.00 0.00 0.00 38 1008.1
20260508185001 17 204 1.6 8.0 0.00 0.00 0.00 37 1008.2
20260508184006 17 250 4.8 11.3 0.00 0.00 0.00 38 1008.2
20260508181959 17 238 4.8 11.3 0.00 0.00 0.00 38 1008.4
20260508181001 17 232 3.2 9.7 0.00 0.00 0.00 39 1008.5
20260508175001 17 169 3.2 8.0 0.00 0.00 0.00 31 1008.7
20260508173001 17 227 4.8 14.5 0.00 0.00 0.00 36 1009.0
20260508172004 17 246 4.8 16.1 0.00 0.00 0.00 42 1009.1
20260508171001 16 215 3.2 12.9 0.00 0.00 0.00 37 1009.3
20260508170005 16 249 4.8 12.9 0.00 0.00 0.00 38 1009.3
20260508165001 16 236 3.2 12.9 0.00 0.00 0.00 39 1009.6
20260508164003 16 185 3.2 11.3 0.00 0.00 0.00 43 1009.7
20260508162001 16 225 1.6 6.4 0.00 0.00 0.00 42 1009.9
20260508161002 15 219 3.2 11.3 0.00 0.00 0.00 40 1009.9
20260508160006 15 213 3.2 11.3 0.00 0.00 0.00 41 1010.0
20260508155002 15 211 4.8 11.3 0.00 0.00 0.00 39 1010.1
20260508154000 15 197 3.2 9.7 0.00 0.00 0.00 43 1010.0
20260508153003 15 189 3.2 11.3 0.00 0.00 0.00 43 1010.1
20260508151002 14 123 4.8 11.3 0.00 0.00 0.00 49 1010.2
20260508150005 15 208 3.2 12.9 0.00 0.00 0.00 54 1010.3
20260508144000 13 221 3.2 8.0 0.00 0.00 0.00 55 1010.4
20260508142005 13 120 3.2 8.0 0.00 0.00 0.00 61 1010.5
20260508141001 13 117 3.2 6.4 0.00 0.00 0.00 64 1010.7
20260508140004 12 152 3.2 6.4 0.00 0.00 0.00 68 1010.7
20260508135001 12 181 3.2 6.4 0.00 0.00 0.00 69 1010.7
20260508133001 11 188 3.2 8.0 0.00 0.00 0.00 74 1010.7
20260508132002 11 170 1.6 4.8 0.00 0.00 0.00 77 1010.7
20260508131001 10 148 1.6 4.8 0.00 0.00 0.00 78 1010.9
20260508130005 9 125 1.6 3.2 0.00 0.00 0.00 77 1011.0
20260508125001 8 126 1.6 4.8 0.00 0.00 0.00 78 1011.0
20260508124002 8 180 1.6 3.2 0.00 0.00 0.00 79 1011.1
20260508122003 6 263 0.0 1.6 0.00 0.00 0.00 84 1010.9
20260508121000 5 304 0.0 1.6 0.00 0.00 0.00 86 1010.7
20260508120007 4 351 0.0 0.0 0.00 0.00 0.00 88 1010.6
20260508115000 3 351 0.0 0.0 0.00 0.00 0.00 91 1010.6
20260508114001 2 351 0.0 0.0 0.00 0.00 0.00 92 1010.5
20260508113004 2 351 0.0 0.0 0.00 0.00 0.00 93 1010.4
20260508112005 1 351 0.0 0.0 0.00 0.00 0.00 94 1010.3
20260508111000 1 351 0.0 0.0 0.00 0.00 0.00 94 1010.4
20260508110004 0 351 0.0 1.6 0.00 0.00 0.00 94 1010.3
20260508104002 0 351 0.0 0.0 0.00 0.00 0.00 92 1010.2
20260508103000 0 351 0.0 0.0 0.00 0.00 0.00 92 1010.0
20260508100004 0 351 0.0 0.0 0.00 0.00 0.00 92 1010.1
20260508095000 0 351 0.0 0.0 0.00 0.00 0.00 92 1010.2
20260508094003 0 351 0.0 0.0 0.00 0.00 0.00 91 1010.3
20260508093000 0 351 0.0 0.0 0.00 0.00 0.00 91 1010.2
20260508092002 0 351 0.0 0.0 0.00 0.00 0.00 91 1010.3
20260508091000 0 351 0.0 0.0 0.00 0.00 0.00 91 1010.4
20260508090007 1 351 0.0 0.0 0.00 0.00 0.00 91 1010.3
20260508085000 1 351 0.0 0.0 0.00 0.00 0.00 91 1010.3
20260508084000 1 351 0.0 0.0 0.00 0.00 0.00 91 1010.3
20260508083000 1 351 0.0 0.0 0.00 0.00 0.00 90 1010.3
20260508082000 1 351 0.0 0.0 0.00 0.00 0.00 90 1010.3
20260508081002 1 351 0.0 0.0 0.00 0.00 0.00 90 1010.4
20260508080004 1 351 0.0 0.0 0.00 0.00 0.00 89 1010.4